AirNav   Air Wisconsin Airman Trainee
 
 941 users online  

3Y3 Winterset Municipal Airport
Winterset, Iowa, USA

GOING TO WINTERSET?


FAA INFORMATION EFFECTIVE 23 MAY 2019

Location

FAA Identifier: 3Y3
Lat/Long: 41-21-46.1000N / 094-01-16.3000W
41-21.768333N / 094-01.271667W
41.3628056 / -94.0211944
(estimated)
Elevation: 1115.5 ft. / 340.0 m (surveyed)
Variation: 02E (2010)
From city: 2 miles N of WINTERSET, IA
Time zone: UTC -5 (UTC -6 during Standard Time)
Zip code: 50273

Airport Operations

Airport use: Open to the public
Activation date: 01/1970
Control tower: no
ARTCC: MINNEAPOLIS CENTER
FSS: FORT DODGE FLIGHT SERVICE STATION
NOTAMs facility: FOD (NOTAM-D service available)
Attendance: MON-FRI 0800-1700, ALL SAT-SUN ON CALL
Pattern altitude: 1915.5 ft. MSL
Wind indicator: lighted
Segmented circle: no
Lights: ACTVT MIRL RY 14/32 & PAPI RYS 14 & 32 - CTAF.
Beacon: white-green (lighted land airport)
Operates sunset to sunrise.

Airport Communications

CTAF/UNICOM: 122.7
DES MOINES APPROACH: 135.2 [0600-2000]
DES MOINES DEPARTURE: 135.2 [0600-2000]
WX ASOS at DSM (19 nm NE): PHONE 515-974-8013

Nearby radio navigation aids

VOR radial/distance  VOR name  Freq  Var
DSMr248/17.4DES MOINES VORTAC117.5007E

Airport Services

Fuel available: 100LL JET-A
Parking: hangars and tiedowns
Airframe service: MAJOR
Powerplant service: MAJOR
Bottled oxygen: NONE
Bulk oxygen: NONE

Runway Information

Runway 14/32

Dimensions: 3002 x 50 ft. / 915 x 15 m
Surface: asphalt, in good condition
Runway edge lights: non-standard
MIRL - RWY 14/32 ENDS HAVE SIX THLD LGTS AND ALL WHITE LENSES ALONG RWY LEN.
Gradient: NW.
RUNWAY 14  RUNWAY 32
Latitude: 41-21.965163N41-21.572028N
Longitude: 094-01.471078W094-01.073435W
Elevation: 1115.5 ft.1093.8 ft.
Traffic pattern: leftleft
Runway heading: 140 magnetic, 142 true320 magnetic, 322 true
Displaced threshold: 175 ft.no
Markings: nonprecision, in good conditionnonprecision, in good condition
Visual slope indicator: 2-light PAPI on left (3.00 degrees glide path)2-light PAPI on left (3.00 degrees glide path)
Touchdown point: yes, no lightsyes, no lights
Obstructions: 15 ft. road, 200 ft. from runway, 45 ft. right of centerline, 1:1 slope to clear
15 FT ROAD 140 FT FM RY END; ALSO 20' BUILDING 130' FROM DISPLACED THRESHOLD 200' RIGHT ON APPROACH.
19 ft. tree, 590 ft. from runway, 210 ft. right of centerline, 20:1 slope to clear

Airport Ownership and Management from official FAA records

Ownership: Publicly-owned
Owner: WNTRSET ARPT AUTH
3405 NORTH 8TH AVENUE
WINTERSET, IA 50273
Phone (515) 468-8895
GREG HARRISON - CHAIRMAN, ARPT AUTHORITY.
Manager: GREG HARRISON
3405 NORTH 8TH AVE
WINTERSET, IA 50273
Phone (515) 468-8895
EMAIL ADDRESS: YEAGER.HAL@GMAIL.COM (ALL LOWER CASE)

Airport Operational Statistics

Aircraft based on the field: 32
Single engine airplanes: 29
Multi engine airplanes: 2
Ultralights: 1
    
Aircraft operations: avg 91/week *
52% transient general aviation
48% local general aviation
* for 12-month period ending 04 October 2017

Additional Remarks

ULTRALIGHT & SKY DIVING ACTIVITY ON & INVOF ARPT.
RY 32 END SAFETY AREA EXTENDS ONLY 58'; SHARP DROP AT THAT POINT.
INADQT CLNC FOR HLDG ON THE TURNAROUND AT THE THLD OF RY 32.
RY 32 IS CALM WIND RY.

Instrument Procedures

NOTE: All procedures below are presented as PDF files. If you need a reader for these files, you should download the free Adobe Reader.

NOT FOR NAVIGATION. Please procure official charts for flight.
FAA instrument procedures published for use from 23 May 2019 at 0901Z to 20 June 2019 at 0900Z.

 
IAPs - Instrument Approach Procedures
RNAV (GPS) RWY 14   download (157KB)
RNAV (GPS) RWY 32   download (149KB)
VOR/DME-A   download (143KB)
NOTE: Special Take-Off Minimums/Departure Procedures apply   download (233KB)

Other nearby airports with instrument procedures:

KDSM - Des Moines International Airport (19 nm NE)
KGFZ - Greenfield Municipal Airport (19 nm W)
I75 - Osceola Municipal Airport (24 nm SE)
KCSQ - Creston Municipal Airport (26 nm SW)
KGCT - Guthrie County Regional Airport (27 nm NW)
 
Loc | Ops | Rwys | IFR | FBO | Links
Com | Nav | Svcs | Stats | Notes
Area around 3Y3 (Winterset Municipal Airport)
 
Road maps at: MapQuest Bing Google
 
Aerial photo
WARNING: Photo may not be current or correct
Aerial photo of 3Y3 (Winterset Municipal Airport)
Photo by Michael Sawyer
Photo taken 20-Sep-2013
looking southeast.

Do you have a better or more recent aerial photo of Winterset Municipal Airport that you would like to share? If so, please send us your photo.

 
Sectional chart

 
Airport distance calculator
Flying to Winterset Municipal Airport? Find the distance to fly.

From to 3Y3

Sunrise and sunset
Times for 16-Jun-2019
 Local
(UTC-5)
 Zulu
(UTC)
Morning civil twilight05:0910:09
Sunrise05:4310:43
Sunset20:5001:50
Evening civil twilight21:2402:24

Current date and time
Zulu (UTC)  16-Jun-2019 18:44:10
Local (UTC-5)  16-Jun-2019 13:44:10
 
METAR
KDSM 
19nm NE 
161840Z 01009KT 10SM BKN027 BKN032 OVC250 23/16 A2987 RMK AO2 T02330161 $
KI75 
24nm SE 
161835Z AUTO 35006KT 7SM SCT018 25/18 A2988 RMK AO2 T02450179
KCSQ 
26nm SW 
161835Z AUTO 36007KT 350V090 10SM SCT021 24/18 A2989 RMK AO2
KIKV 
28nm NE 
161835Z AUTO 01005G13KT 10SM SCT024 BKN031 23/18 A2988 RMK AO2
KPRO 
29nm N 
161835Z AUTO 06003KT 10SM BKN025 BKN032 24/19 A2989 RMK AO2 T02420190
KCNC 
36nm SE 
161835Z AUTO 01009KT 320V020 10SM FEW023 24/19 A2987 RMK AO2
TAF
KDSM 
19nm NE 
161732Z 1618/1718 02006KT P6SM SCT020 FM162200 02006KT P6SM BKN090 FM170900 07004KT 6SM BR BKN020 FM171500 06005KT P6SM SCT030
NOTAMs
Click for the latest NOTAMs
NOTAMs are issued by the DoD/FAA and will open in a separate window not controlled by AirNav.

 

 
 

Would you like to see your business listed on this page?

 If your business provides an interesting product or service to pilots, flight crews, aircraft, or users of the Winterset Municipal Airport, you should consider listing it here.  To start the listing process, click on the button below
 
Add a business
 

Other Pages about Winterset Municipal Airport

Page from the Iowa Airport Directory
 
Update a link
 
Copyright © AirNav, LLC. All rights reserved. Privacy Policy  Contact